STARLINK-30154 (57495 NORAD) Tracking and Keplerian Element Data

This shows tracking and keplerian element data for the satellite.

Feedback or suggestion? Click here.




ElementValue
Catalog57495
NameSTARLINK-30154
Epoch Orbit2517
Epoch Day13.10842774
Epoch Year2024
RAAN331.7544
Inclination43.003
Eccentricity0.0001222
Argument of Perigee249.921
Mean Anonmoly110.15
Mean Motion15.02542031
Decay Rate0.00025364
L11 57495U 23113A 24013.10842774 .00025364 00000+0 18856-2 0 9992
L22 57495 43.0030 331.7544 0001222 249.9210 110.1500 15.02542031 25179



Live tracking and technical data element details for STARLINK-30154 (NORAD 57495). STARLINK-30154 can be tracked NOW for your location showing map with azimuth and elevation plus other details from your city location.







IsCatalogInMostPopularTable: catalog: 57495, numindb: 14
Update: records affected: 1



GetName: 57495 STARLINK-30154

Hit Count: updated at: Thu, 22 Feb 2024 00:41:17 GMT